sat.trackr.live / text

‹ back to catalog

STARLINK-34600

NORAD 64699 · 2025-142D

PAYLOAD ACTIVE UNKNOWN

§ Identity

Operator
Country
US
Launch date
2025-06-28
Launch site
AFWTR
Launch vehicle
Mass (kg)
RCS (m²)

Purposes: comms

External: N2YO · Heavens-Above · Gunter

§ Orbital elements

Epoch: 2026-05-25T02:24:09.980928Z

Period
96.11 min
Inclination
70.0011°
Eccentricity
0.0004211
Mean motion
14.98341320 rev/d
Perigee alt
569.1 km
Apogee alt
574.9 km
Semi-major
6,950.2 km
B*
1.8306e-4
RAAN
121.8806°
Arg perigee
262.8879°
Mean anomaly
97.1801°
Rev number
5,092

§ Raw data

STARLINK-346001 64699U 25142D   26145.10011552  .00002093  00000+0  18306-3 0  99952 64699  70.0011 121.8806 0004211 262.8879  97.1801 14.98341320 50928

JSON: /api/v1/satellites/64699 · /tle

For live sub-satellite position, see the globe view (requires WebGL).

§ Visibility from observer

Set your observer location to see the next 7 days of passes ≥ 10°. The values pass through the URL so the page stays shareable.

No JS? Fill the form by hand. The geolocation button needs JavaScript.